STARLINK-31065 (58627 NORAD) Tracking and Keplerian Element Data

This shows tracking and keplerian element data for the satellite.

Feedback or suggestion? Click here.




ElementValue
Catalog58627
NameSTARLINK-31065
Epoch Orbit445
Epoch Day13.25002315
Epoch Year2024
RAAN183.7301
Inclination43.0011
Eccentricity0.0001529
Argument of Perigee257.0197
Mean Anonmoly12.2928
Mean Motion15.52631744
Decay Rate-0.01740179
L11 58627U 23203K 24013.25002315 -.01740179 00000+0 -30911-1 0 9991
L22 58627 43.0011 183.7301 0001529 257.0197 12.2928 15.52631744 4455



Live tracking and technical data element details for STARLINK-31065 (NORAD 58627). STARLINK-31065 can be tracked NOW for your location showing map with azimuth and elevation plus other details from your city location.







IsCatalogInMostPopularTable: catalog: 58627, numindb: 25
Update: records affected: 1



GetName: 58627 STARLINK-31065

Hit Count: updated at: Wed, 17 Apr 2024 02:28:47 GMT